EW5795 Weather Reports


time (UTC)temp
C
wind
direction
speed
KPH
gust
KPH
rain 1hr
cm
rain 24hr
cm
rain mn
cm
humidity
%
barometer
mb
20260503053037 12 94 1.6 3.2 0.00 0.25 0.25 92 1009.3
20260503051531 12 115 1.6 6.4 0.03 0.25 0.25 92 1009.3
20260503050029 12 130 4.8 8.0 0.10 0.25 0.25 92 1009.2
20260503044524 12 104 3.2 9.7 0.10 0.25 0.25 92 1009.2
20260503043023 12 103 4.8 9.7 0.10 0.25 0.25 92 1009.3
20260503041521 12 86 3.2 6.4 0.05 0.23 0.23 92 1009.4
20260503040020 12 32 0.0 3.2 0.00 0.15 0.15 92 1009.8
20260503034533 12 32 0.0 1.6 0.00 0.15 0.15 91 1010.0
20260503033016 12 32 0.0 1.6 0.00 0.15 0.15 91 1010.3
20260503031516 12 32 0.0 4.8 0.00 0.15 0.15 91 1010.3
20260503030015 12 286 3.2 4.8 0.00 0.15 0.15 91 1010.0
20260503024512 12 286 0.0 3.2 0.00 0.15 0.15 91 1010.2
20260503023011 12 286 0.0 0.0 0.00 0.15 0.15 91 1010.2
20260503021511 12 286 0.0 1.6 0.00 0.15 0.15 91 1010.2
20260503020011 12 286 1.6 3.2 0.00 0.15 0.15 91 1010.4
20260503014515 12 286 0.0 1.6 0.00 0.15 0.15 91 1010.5
20260503013010 12 286 0.0 1.6 0.00 0.15 0.15 91 1010.4
20260503011509 12 286 1.6 6.4 0.00 0.15 0.15 91 1010.4
20260503010009 12 63 0.0 3.2 0.00 0.15 0.15 91 1010.4
20260503004509 12 57 1.6 4.8 0.00 0.15 0.15 91 1010.2
20260503003006 12 49 0.0 4.8 0.05 0.15 0.15 91 1010.5
20260503001505 12 90 4.8 11.3 0.08 0.15 0.15 91 1010.6
20260503000003 12 88 8.0 16.1 0.15 0.15 0.15 90 1010.7
20260502234501 12 72 11.3 20.9 0.15 0.15 0.15 90 1011.1
20260502233102 12 97 11.3 19.3 0.13 0.13 0.13 90 1011.6
20260502231605 12 111 11.3 24.1 0.08 0.08 0.08 89 1012.2
20260502230053 13 117 17.7 22.5 0.03 0.03 0.03 89 1012.4
20260502224550 12 171 9.7 17.7 0.00 0.00 0.00 88 1013.0
20260502223049 12 225 11.3 25.7 0.00 0.00 0.00 88 1013.5
20260502221546 12 110 6.4 12.9 0.00 0.00 0.00 88 1012.1
20260502220045 12 78 6.4 12.9 0.00 0.00 0.00 88 1011.9
20260502214541 12 72 4.8 12.9 0.00 0.00 0.00 87 1012.1
20260502213040 12 86 3.2 12.9 0.00 0.00 0.00 87 1012.2
20260502211545 12 61 3.2 12.9 0.00 0.00 0.00 86 1012.5
20260502210036 12 69 3.2 8.0 0.00 0.00 0.00 85 1012.6
20260502204533 12 65 3.2 6.4 0.00 0.00 0.00 85 1012.8
20260502203033 12 82 1.6 4.8 0.00 0.00 0.00 84 1013.0
20260502201533 12 69 3.2 4.8 0.00 0.00 0.00 83 1013.1
20260502200032 12 66 3.2 4.8 0.00 0.00 0.00 83 1013.3
20260502194531 13 40 0.0 3.2 0.00 0.00 0.00 83 1013.3
20260502193029 13 343 1.6 6.4 0.00 0.00 0.00 82 1013.3
20260502191528 14 334 1.6 8.0 0.00 0.00 0.00 81 1013.4
20260502190032 15 348 0.0 6.4 0.00 0.00 0.00 78 1013.3
20260502184531 15 16 1.6 8.0 0.00 0.00 0.00 76 1013.4
20260502183026 16 3 1.6 8.0 0.00 0.00 0.00 74 1013.3
20260502181525 16 37 1.6 6.4 0.00 0.00 0.00 73 1013.4
20260502163018 20 284 11.3 17.7 0.00 0.00 0.00 50 1014.4
20260502161514 20 279 9.7 16.1 0.00 0.00 0.00 47 1014.4
20260502151508 20 309 14.5 22.5 0.00 0.00 0.00 49 1014.9
20260502123048 19 288 11.3 29.0 0.00 0.00 0.00 73 1016.0
20260502121601 19 247 19.3 29.0 0.00 0.00 0.00 74 1016.0
20260502114545 20 282 12.9 22.5 0.00 0.00 0.00 73 1016.1
20260502113044 19 235 8.0 20.9 0.00 0.00 0.00 75 1016.1
20260502111550 18 268 12.9 20.9 0.00 0.00 0.00 77 1016.4
20260502110048 18 276 11.3 25.7 0.00 0.00 0.00 77 1016.4
20260502104545 18 222 16.1 24.1 0.00 0.00 0.00 77 1016.3
20260502103050 19 242 12.9 19.3 0.00 0.00 0.00 77 1016.3
20260502101600 18 283 11.3 20.9 0.00 0.00 0.00 78 1016.4
20260502071518 13 218 4.8 9.7 0.00 0.00 0.00 79 1016.6
20260502070022 13 212 3.2 8.0 0.00 0.00 0.00 79 1016.7
20260502064527 13 210 4.8 9.7 0.00 0.00 0.00 77 1016.6
20260502063016 12 212 3.2 6.4 0.00 0.00 0.00 75 1016.6
20260502061515 14 267 3.2 9.7 0.00 0.00 0.00 70 1016.6
20260502060013 13 240 1.6 4.8 0.00 0.00 0.00 72 1016.5
20260502054509 11 211 1.6 4.8 0.00 0.00 0.00 77 1016.4